Location: Tamazert
(32.6352°N, 5.2072°W)
Time: 22:32:28
(UTC+00:00)

Transit 2A Rocket - Pass Details

Date: 06 October 2022
Orbit: 589 x 911 km, 66.7° (Epoch: 28 November)

Event Time Altitude Azimuth Distance (km) Brightness Sun altitude
Rises 13:41:13 0° 346° (NNW) 3,057 7.8 46.2°
Reaches altitude 10° 13:43:43 10° 357° (N) 2,190 7.1 45.9°
Maximum altitude 13:48:09 31° 59° (ENE) 1,306 6.2 45.4°
Drops below altitude 10° 13:52:55 10° 121° (ESE) 2,373 7.6 44.8°
Sets 13:55:43 0° 131° (SE) 3,355 8.3 44.4°
